KG5VSR Weather Reports


time (UTC)temp
C
wind
direction
speed
KPH
gust
KPH
rain 1hr
cm
rain 24hr
cm
rain mn
cm
humidity
%
barometer
mb
20260507065409 13 323 1.6 1.6 0.00 0.00 0.00 89 1017.7
20260507062405 13 61 1.6 3.2 0.00 0.00 0.00 88 1017.7
20260507055404 13 91 1.6 1.6 0.00 0.00 0.00 86 1017.8
20260507052400 15 27 1.6 1.6 0.00 0.00 0.00 86 1017.7
20260507045359 15 336 0.0 1.6 0.00 0.66 0.66 84 1017.7
20260507042355 15 39 0.0 1.6 0.00 0.66 0.66 84 1018.0
20260507035350 15 55 0.0 1.6 0.00 0.66 0.66 84 1017.9
20260507032350 15 319 1.6 1.6 0.00 0.66 0.66 85 1017.9
20260507025348 15 21 3.2 3.2 0.00 0.66 0.66 83 1017.3
20260507022347 15 354 1.6 1.6 0.00 0.66 0.66 85 1017.2
20260507015346 15 1 1.6 3.2 0.00 0.66 0.66 87 1016.4
20260507012343 15 128 3.2 4.8 0.00 0.66 0.66 88 1015.6
20260507005339 15 76 4.8 9.7 0.00 0.66 0.66 88 1015.3
20260507002334 15 61 1.6 1.6 0.00 0.66 0.66 88 1015.1
20260506235332 15 359 1.6 1.6 0.00 0.66 0.66 87 1014.5
20260506232330 15 64 0.0 1.6 0.00 0.66 0.66 87 1014.7
20260506225329 15 26 0.0 1.6 0.00 0.66 0.66 87 1014.2
20260506222325 15 334 0.0 1.6 0.00 0.66 0.66 90 1014.5
20260506215324 15 298 0.0 1.6 0.00 0.66 0.66 91 1013.8
20260506212323 16 330 0.0 1.6 0.00 0.61 0.61 82 1013.8
20260506205319 16 90 3.2 4.8 0.00 0.61 0.61 80 1013.9
20260506202314 16 70 1.6 1.6 0.00 0.61 0.61 80 1014.5
20260506195312 16 9 3.2 3.2 0.00 0.61 0.61 83 1015.1
20260506192309 14 4 6.4 8.0 0.00 0.61 0.61 86 1015.2
20260506185307 13 8 3.2 4.8 0.00 0.61 0.61 87 1015.0
20260506182306 13 343 4.8 4.8 0.00 0.61 0.61 88 1014.8
20260506175305 13 85 4.8 9.7 0.00 0.61 0.61 91 1013.6
20260506172306 12 4 1.6 3.2 0.00 0.61 0.61 96 1014.9
20260506165258 12 347 1.6 3.2 0.00 0.61 0.61 98 1014.2
20260506162255 12 306 1.6 1.6 0.00 0.61 0.61 98 1015.1
20260506155251 12 5 9.7 16.1 1.37 0.61 0.61 96 1013.9
20260506152248 12 279 0.0 0.0 1.98 0.33 0.33 92 1016.7
20260506145247 12 59 1.6 3.2 0.00 0.00 0.00 88 1015.3
20260506142244 12 325 0.0 1.6 0.00 0.00 0.00 88 1015.0
20260506135239 12 352 1.6 3.2 0.00 0.00 0.00 88 1014.1
20260506132238 12 96 3.2 4.8 0.00 0.00 0.00 86 1013.6
20260506125233 12 1 3.2 3.2 0.00 0.00 0.00 85 1013.7
20260506122229 13 348 6.4 8.0 0.00 0.00 0.00 83 1013.3
20260506115226 13 318 8.0 14.5 0.00 0.00 0.00 83 1013.0
20260506112222 13 295 4.8 4.8 0.00 0.00 0.00 81 1012.3
20260506105223 14 25 0.0 0.0 0.00 0.00 0.00 81 1011.6
20260506102219 15 326 1.6 1.6 0.00 0.00 0.00 81 1011.1
20260506095214 15 322 0.0 0.0 0.00 0.00 0.00 80 1010.8
20260506092211 15 357 1.6 1.6 0.00 0.00 0.00 80 1010.8
20260506085211 15 339 3.2 3.2 0.00 0.00 0.00 81 1010.4
20260506082208 16 321 1.6 3.2 0.00 0.00 0.00 81 1009.9
20260506072159 16 291 0.0 1.6 0.00 0.00 0.00 81 1010.2